This demonstration page uses our WeatherBlox Daily Observations layout. Learn more.

Left ArrowRight Arrow

44.8408, -93.29828

Hourly Observations for September 3, 2020

Temp ( °F °C ) Dew Point ( °F °C ) Humidity (%) Winds ( mph kmh ) Pressure ( in mb ) Visibility ( mi km ) Precip ( " mm )
12:53 am 00:53 Mostly Cloudy 75 23.9 48 8.9 39 39 SSW 13 20 29.52 1000 10 16 0.00 0.00
1:53 am 01:53 Mostly Cloudy with Light Rain 73 22.8 51 10.6 46 46 WSW 13 20 29.57 1002 8 13 0.00 0.00
2:04 am 02:04 Mostly Cloudy 72 22.2 51 10.6 48 48 SW 13 20 29.54 1000 10 16 0.00 0.00
2:53 am 02:53 Cloudy 73 22.8 49 9.4 43 43 W 14 22 29.58 1002 10 16 0.00 0.00
3:53 am 03:53 Cloudy 73 22.8 49 9.4 43 43 W 15 24 29.58 1002 10 16 0.00 0.00
4:53 am 04:53 Mostly Cloudy 70 21.1 51 10.6 51 51 W 13 20 29.58 1002 10 16 0.00 0.00
5:53 am 05:53 Mostly Cloudy 64 17.8 52 11.1 65 65 WNW 16 26 29.63 1004 10 16 0.00 0.00
6:53 am 06:53 Partly Cloudy 60 15.6 49 9.4 67 67 WNW 22 35 29.69 1005 10 16 0.00 0.00
7:53 am 07:53 Mostly Cloudy 60 15.6 48 8.9 65 65 NW 17 28 29.73 1007 10 16 0.00 0.00
8:53 am 08:53 Mostly Cloudy 60 15.6 48 8.9 65 65 WNW 17 28 29.75 1008 10 16 0.00 0.00
9:53 am 09:53 Mostly Cloudy 63 17.2 47 8.3 56 56 WNW 24 39 29.78 1008 10 16 0.00 0.00
10:53 am 10:53 Partly Cloudy 64 17.8 47 8.3 54 54 NW 22 35 29.81 1010 10 16 0.00 0.00
11:53 am 11:53 Partly Cloudy 66 18.9 47 8.3 50 50 NW 23 37 29.83 1010 10 16 0.00 0.00
12:53 pm 12:53 Mostly Cloudy 66 18.9 46 7.8 49 49 NW 21 33 29.85 1011 10 16 0.00 0.00
1:53 pm 13:53 Partly Cloudy 68 20 44 6.7 42 42 WNW 22 35 29.87 1012 10 16 0.00 0.00
2:53 pm 14:53 Partly Cloudy 68 20 44 6.7 42 42 WNW 21 33 29.88 1012 10 16 0.00 0.00
3:53 pm 15:53 Partly Cloudy 69 20.6 44 6.7 41 41 WNW 24 39 29.89 1012 10 16 0.00 0.00
4:53 pm 16:53 Mostly Sunny 69 20.6 43 6.1 39 39 W 15 24 29.89 1012 10 16 0.00 0.00
5:53 pm 17:53 Mostly Sunny 68 20 42 5.6 39 39 WNW 18 30 29.91 1013 10 16 0.00 0.00
6:53 pm 18:53 Mostly Sunny 66 18.9 43 6.1 43 43 WNW 14 22 29.91 1013 10 16 0.00 0.00
7:53 pm 19:53 Clear 63 17.2 41 5 45 45 WNW 10 17 29.93 1013 10 16 0.00 0.00
8:53 pm 20:53 Clear 61 16.1 42 5.6 50 50 WNW 8 13 29.94 1014 10 16 0.00 0.00
9:53 pm 21:53 Clear 60 15.6 43 6.1 53 53 WNW 6 9 29.97 1015 10 16 0.00 0.00
10:53 pm 22:53 Clear 60 15.6 44 6.7 56 56 SW 5 7 29.98 1015 10 16 0.00 0.00
11:53 pm 23:53 Clear 57 13.9 45 7.2 64 64 SW 6 9 29.98 1015 10 16 0.00 0.00

Powered by AerisWeather